Flag for U.S.A. Weather past 2 weeks in San Jose, California, U.S.A.

Now
74 °F

Scattered clouds.


Feels Like: 77 °F
Forecast: 61 / 78 °F
Wind: No wind

Location: San Jose International Airport

Current Time: Jul 5, 2015 at 11:35:33 AM

Latest Report: Jul 5, 2015 at 10:53 AM


Visibility: 10 mi

Pressure: 29.96 "Hg

Humidity: 53%

Dew point: 56 °F

Location of San JoseLocation

Historic Weather in San Jose — Graph

°F

San Jose temperature yesterday

Maximum temperature yesterday: 79 °F (at 12:53 PM)
Minimum temperature yesterday: 62 °F (at 12:53 AM)
Average temperature yesterday: 69 °F

Past Weeks' High & Low Weather Summary

 TemperatureHumidityPressure
High92 °F (Jun 30, 3:53 PM)90% (Jun 21, 1:53 AM)30.06 "Hg (Jun 21, 1:53 AM)
Low55 °F (Jun 22, 3:53 AM)25% (Jun 30, 3:53 PM)29.78 "Hg (Jun 30, 5:53 PM)
Average68 °F66%29.93 "Hg
* Reported Jun 20 9:53 AM — Jul 5 9:53 AM, San Jose, Weather by CustomWeather, © 2015

Note: Actual official high and low records may vary slightly from our data, if they occured in-between our weather recording intervals... More about our weather records

Advertising

San Jose weather history for previous 24 hours

 ConditionsComfort  
Time TempWeatherWind HumidityBarometerVisibility
9:53 AM
Sun, Jul 5
70 °FScattered clouds.10 mph61%29.95 "Hg10 mi
8:53 AM67 °FScattered clouds.8 mph68%29.95 "Hg10 mi
7:53 AM63 °FScattered clouds.12 mph78%29.94 "Hg10 mi
6:53 AM61 °FScattered clouds.9 mph81%29.92 "Hg10 mi
5:53 AM60 °FPassing clouds.13 mph86%29.91 "Hg10 mi
4:53 AM61 °FPassing clouds.10 mph83%29.90 "Hg10 mi
3:53 AM62 °FOvercast.8 mph83%29.89 "Hg10 mi
2:53 AM62 °FClear.10 mph83%29.88 "Hg10 mi
1:53 AM62 °FClear.6 mph83%29.88 "Hg10 mi
12:53 AM62 °FClear.No wind83%29.88 "Hg6 mi
11:53 PM
Sat, Jul 4
63 °FHaze.3 mph84%29.88 "Hg6 mi
10:53 PM63 °FClear.6 mph81%29.89 "Hg9 mi
9:53 PM64 °FClear.7 mph81%29.87 "Hg10 mi
8:53 PM66 °FPassing clouds.7 mph75%29.85 "Hg10 mi
7:53 PM69 °FPassing clouds.12 mph70%29.84 "Hg10 mi
6:53 PM72 °FPassing clouds.12 mph64%29.82 "Hg10 mi
5:53 PM75 °FPassing clouds.15 mph60%29.82 "Hg10 mi
4:53 PM77 °FPassing clouds.15 mph56%29.81 "Hg10 mi
3:53 PM78 °FPassing clouds.13 mph54%29.82 "Hg10 mi
2:53 PM78 °FPassing clouds.13 mph56%29.82 "Hg10 mi
1:53 PM77 °FPassing clouds.12 mph58%29.83 "Hg10 mi
12:53 PM79 °FPassing clouds.10 mph54%29.84 "Hg10 mi
11:53 AM78 °FPassing clouds.7 mph54%29.85 "Hg10 mi
Weather by CustomWeather, © 2015

See weather overviewHow to use our weather pages